Starlink 11433

operational
NORAD ID: 62008 Int'l Des: 2024-213 Owner: SPXS Country: US Constellation: starlink
LEOCIRCULAR

About Starlink 11433

Description loading...

Live Position

Loading 3D Globe...

Upcoming Passes

Altitude History

Altitude vs Time

uPlot chart will show altitude changes over time

Two-Line Element Set

1 62008U 24213A 25260.22985831 .00118791 00000-0 96949-3 0 9998
2 62008 53.1577 176.1849 0001079 128.3280 231.7835 15.69757285 47671
Epoch: Sep 17, 2025 • Age: 18 hours

Current Status

Altitude 358.6 km
Velocity 7.70 km/s
Sub-Earth Point 11.85°N, 1.1°E
Launch Date Nov 18, 2024
Age 0.8 years
Type internet

Technical Details

Classification Payload
Mass 960.00 kg
Dry Mass 910.00 kg
Total Mass 960.00 kg
Length 0.30 m
Diameter 4.10 m
Span 29.00 m
Shape Box + pan
Manufacturer SPXS
Bus Type Starlink V2MD
Phase Status In Orbit
Owner/State SPXS/US

Large Constellations

Loading constellations...